Simultaneous Nadir Overpasses (SNOs) Predictions

Prediction of SNOs between NOAA-19 and TERRA Satellite Orbit:

Table of predicted SNOs for the next 14.0 days since TLE Epoch: 7/27/2013
Index Date (NOAA-19) Time (NOAA-19) Lat,Lon (NOAA-19) SZA (NOAA-19 ) Date (TERRA) Time (TERRA) Lat,Lon (TERRA) SZA (TERRA ) Distance(km) Time Diff (sec)
1 07/28/2013 02:30:46 -69.64, -37.60 129.43 07/28/2013 02:31:47 -69.65, -37.66 129.42 2.99 61
2 07/28/2013 03:21:43 69.55, 129.79 50.49 07/28/2013 03:21:14 69.55, 129.84 50.49 1.92 29
3 07/30/2013 07:15:03 -69.65,-108.67 128.90 07/30/2013 07:16:06 -69.66,-108.73 128.89 2.84 63
4 07/30/2013 08:06:00 69.55, 58.74 51.01 07/30/2013 08:05:33 69.56, 58.77 51.02 1.70 27
5 08/01/2013 11:59:20 -69.66,-179.75 128.34 08/01/2013 12:00:25 -69.66,-179.81 128.34 2.46 65
6 08/01/2013 12:50:17 69.54, -12.31 51.55 08/01/2013 12:49:52 69.56, -12.31 51.56 1.23 25
7 08/03/2013 16:43:37 -69.68, 109.17 127.75 08/03/2013 16:44:43 -69.71, 109.18 127.73 3.32 66
8 08/03/2013 17:34:34 69.55, -83.37 52.12 08/03/2013 17:34:11 69.55, -83.40 52.12 1.26 23
9 08/05/2013 21:27:54 -69.71, 38.08 127.14 08/05/2013 21:29:02 -69.70, 38.08 127.15 0.84 68
10 08/05/2013 22:18:51 69.55,-154.43 52.72 08/05/2013 22:18:30 69.53,-154.51 52.70 3.50 21
11 08/08/2013 02:12:11 -69.73, -33.02 126.50 08/08/2013 02:13:20 -69.73, -32.96 126.50 2.36 69
12 08/08/2013 03:03:08 69.55, 134.50 53.33 08/08/2013 03:02:48 69.56, 134.46 53.34 2.05 20
